Location: St. Louis
(38.6270°N, 90.1994°W)
Time: 12:23:35
(UTC-06:00)

A-11 Canister half - Pass Details

Date: 10 December 2021
Orbit: 1524 x 1684 km, 47.3° (Epoch: 25 January)

Event Time Altitude Azimuth Distance (km) Brightness Sun altitude
Rises 02:57:10 0° 283° (WNW) 4,938 - -48.1°
Reaches altitude 10° 03:00:30 10° 289° (WNW) 3,949 - -47.4°
Maximum altitude 03:10:24 53° 4° (N) 1,990 - -45.5°
Exits shadow 03:12:28 47° 39° (NE) 2,111 9.7 -45.1°
Drops below altitude 10° 03:20:06 10° 80° (E) 3,877 11.7 -43.6°
Sets 03:23:20 0° 86° (E) 4,842 12.4 -43.0°
